• In Österreich
  • Länderverzeichnis
  • Für 7 Tage
  • Wassertemperatur
  • Satellitenkarten
  • Wetterkarte
  • News
  • Widgets
  • user-avatar
    Anmelden

    Stündliche Wetter Chyrvyne

    Heute, 18 August, Samstag

    Zeit Temperatur Niederschläge Wind Luftdruck Luftfeuchtigkeit
    00:00 +20°C° 0 mm 3 m/S 749 mmHg 85%
    01:00 +19°C° 0 mm 3 m/S 749 mmHg 86%
    02:00 +19°C° 0 mm 3 m/S 749 mmHg 86%
    03:00 +18°C° 0 mm 3 m/S 749 mmHg 87%
    04:00 +18°C° 0 mm 3 m/S 749 mmHg 88%
    05:00 +18°C° 0 mm 3 m/S 750 mmHg 89%
    06:00 +19°C° 0 mm 3 m/S 750 mmHg 83%
    07:00 +20°C° 0 mm 4 m/S 750 mmHg 78%
    08:00 +22°C° 0 mm 4 m/S 750 mmHg 73%
    09:00 +23°C° 0 mm 4 m/S 750 mmHg 67%
    10:00 +25°C° 0 mm 4 m/S 751 mmHg 61%
    11:00 +27°C° 0 mm 4 m/S 751 mmHg 55%
    12:00 +27°C° 0 mm 4 m/S 750 mmHg 52%
    13:00 +27°C° 0 mm 4 m/S 750 mmHg 50%
    14:00 +28°C° 0 mm 4 m/S 750 mmHg 47%
    15:00 +27°C° 0 mm 4 m/S 750 mmHg 50%
    16:00 +27°C° 0 mm 3 m/S 750 mmHg 52%
    17:00 +27°C° 0 mm 3 m/S 750 mmHg 55%
    18:00 +25°C° 0 mm 3 m/S 750 mmHg 59%
    19:00 +22°C° 0 mm 3 m/S 751 mmHg 64%
    20:00 +20°C° 0 mm 3 m/S 751 mmHg 68%
    21:00 +19°C° 0 mm 3 m/S 751 mmHg 70%
    22:00 +19°C° 0 mm 3 m/S 751 mmHg 71%
    23:00 +18°C° 0 mm 3 m/S 751 mmHg 73%

    Morgen, 19 August, Sonntag

    Zeit Temperatur Niederschläge Wind Luftdruck Luftfeuchtigkeit
    00:00 +17°C° 0 mm 3 m/S 751 mmHg 73%
    01:00 +17°C° 0 mm 3 m/S 751 mmHg 74%
    02:00 +16°C° 0 mm 3 m/S 751 mmHg 74%
    03:00 +16°C° 0 mm 3 m/S 751 mmHg 75%
    04:00 +16°C° 0 mm 3 m/S 751 mmHg 75%
    05:00 +14°C° 0 mm 3 m/S 751 mmHg 76%
    06:00 +17°C° 0 mm 3 m/S 751 mmHg 71%
    07:00 +19°C° 0 mm 3 m/S 752 mmHg 66%
    08:00 +21°C° 0 mm 3 m/S 752 mmHg 61%
    09:00 +22°C° 0 mm 3 m/S 752 mmHg 56%
    10:00 +25°C° 0 mm 3 m/S 752 mmHg 50%
    11:00 +26°C° 0 mm 3 m/S 752 mmHg 44%
    12:00 +27°C° 0 mm 3 m/S 751 mmHg 42%
    13:00 +27°C° 0 mm 3 m/S 751 mmHg 40%
    14:00 +28°C° 0 mm 2 m/S 751 mmHg 38%
    15:00 +28°C° 0 mm 2 m/S 751 mmHg 40%
    16:00 +27°C° 0 mm 2 m/S 750 mmHg 43%
    17:00 +27°C° 0 mm 1 m/S 750 mmHg 46%
    18:00 +25°C° 0 mm 2 m/S 750 mmHg 49%
    19:00 +23°C° 0 mm 2 m/S 750 mmHg 52%
    20:00 +20°C° 0 mm 2 m/S 750 mmHg 55%
    21:00 +19°C° 0 mm 2 m/S 750 mmHg 57%
    22:00 +19°C° 0 mm 3 m/S 750 mmHg 58%
    23:00 +18°C° 0 mm 3 m/S 750 mmHg 60%

    übermorgen, 20 August, Montag

    Zeit Temperatur Niederschläge Wind Luftdruck Luftfeuchtigkeit
    00:00 +18°C° 0 mm 3 m/S 750 mmHg 60%
    01:00 +17°C° 0 mm 3 m/S 750 mmHg 60%
    02:00 +17°C° 0 mm 3 m/S 750 mmHg 60%
    03:00 +17°C° 0 mm 2 m/S 750 mmHg 59%
    04:00 +16°C° 0 mm 2 m/S 750 mmHg 59%
    05:00 +16°C° 0 mm 2 m/S 750 mmHg 59%
    06:00 +18°C° 0 mm 2 m/S 750 mmHg 56%
    07:00 +19°C° 0 mm 2 m/S 750 mmHg 54%
    08:00 +21°C° 0 mm 3 m/S 750 mmHg 51%
    09:00 +24°C° 0 mm 3 m/S 750 mmHg 47%
    10:00 +26°C° 0 mm 3 m/S 750 mmHg 43%
    11:00 +27°C° 0 mm 3 m/S 750 mmHg 39%
    12:00 +28°C° 0 mm 3 m/S 749 mmHg 38%
    13:00 +29°C° 0 mm 3 m/S 749 mmHg 37%
    14:00 +29°C° 0 mm 3 m/S 749 mmHg 36%
    15:00 +29°C° 0 mm 3 m/S 749 mmHg 39%
    16:00 +29°C° 0 mm 2 m/S 748 mmHg 42%
    17:00 +28°C° 0 mm 2 m/S 748 mmHg 45%
    18:00 +26°C° 0 mm 2 m/S 748 mmHg 47%
    19:00 +24°C° 0 mm 2 m/S 748 mmHg 48%
    20:00 +23°C° 0 mm 2 m/S 748 mmHg 50%
    21:00 +21°C° 0 mm 2 m/S 748 mmHg 50%
    22:00 +20°C° 0 mm 2 m/S 748 mmHg 49%
    23:00 +20°C° 0 mm 2 m/S 748 mmHg 49%

    21 August, Dienstag

    Zeit Temperatur Niederschläge Wind Luftdruck Luftfeuchtigkeit
    00:00 +19°C° 0 mm 2 m/S 748 mmHg 49%
    01:00 +19°C° 0 mm 2 m/S 748 mmHg 49%
    02:00 +18°C° 0 mm 2 m/S 748 mmHg 49%
    03:00 +18°C° 0 mm 2 m/S 748 mmHg 49%
    04:00 +18°C° 0 mm 2 m/S 748 mmHg 49%
    05:00 +18°C° 0 mm 2 m/S 748 mmHg 50%
    06:00 +19°C° 0 mm 2 m/S 748 mmHg 49%
    07:00 +21°C° 0 mm 2 m/S 748 mmHg 48%
    08:00 +24°C° 0 mm 3 m/S 748 mmHg 48%
    09:00 +25°C° 0 mm 3 m/S 748 mmHg 44%
    10:00 +27°C° 0 mm 4 m/S 748 mmHg 41%
    11:00 +29°C° 0 mm 4 m/S 748 mmHg 37%
    12:00 +30°C° 0 mm 4 m/S 747 mmHg 36%
    13:00 +30°C° 0 mm 5 m/S 747 mmHg 36%
    14:00 +32°C° 0 mm 5 m/S 746 mmHg 35%
    15:00 +30°C° 0 mm 5 m/S 746 mmHg 39%
    16:00 +30°C° 0 mm 4 m/S 746 mmHg 42%
    17:00 +29°C° 0 mm 3 m/S 746 mmHg 46%
    18:00 +27°C° 0,1 mm 3 m/S 746 mmHg 50%
    19:00 +26°C° 0,1 mm 3 m/S 746 mmHg 55%
    20:00 +24°C° 0,1 mm 3 m/S 746 mmHg 59%
    21:00 +22°C° 0,1 mm 3 m/S 745 mmHg 64%
    22:00 +22°C° 0,1 mm 3 m/S 745 mmHg 69%
    23:00 +21°C° 0,1 mm 3 m/S 745 mmHg 73%

    22 August, Mittwoch

    Zeit Temperatur Niederschläge Wind Luftdruck Luftfeuchtigkeit
    00:00 +21°C° 0,1 mm 3 m/S 745 mmHg 78%
    01:00 +20°C° 0,1 mm 3 m/S 745 mmHg 82%
    02:00 +20°C° 0,1 mm 3 m/S 745 mmHg 86%
    03:00 +19°C° 0,1 mm 3 m/S 746 mmHg 89%
    04:00 +19°C° 0,1 mm 3 m/S 746 mmHg 92%
    05:00 +18°C° 0,1 mm 3 m/S 746 mmHg 95%
    06:00 +19°C° 0 mm 4 m/S 747 mmHg 89%
    07:00 +19°C° 0 mm 4 m/S 747 mmHg 83%
    08:00 +20°C° 0 mm 5 m/S 748 mmHg 78%
    09:00 +21°C° 0 mm 5 m/S 748 mmHg 70%
    10:00 +22°C° 0 mm 5 m/S 748 mmHg 62%
    11:00 +23°C° 0 mm 5 m/S 748 mmHg 54%
    12:00 +25°C° 0 mm 4 m/S 749 mmHg 51%
    13:00 +25°C° 0 mm 4 m/S 749 mmHg 49%
    14:00 +26°C° 0 mm 4 m/S 749 mmHg 46%
    15:00 +25°C° 0 mm 4 m/S 749 mmHg 47%
    16:00 +25°C° 0 mm 4 m/S 749 mmHg 49%
    17:00 +24°C° 0 mm 3 m/S 749 mmHg 50%
    18:00 +21°C° 0 mm 3 m/S 749 mmHg 54%
    19:00 +19°C° 0 mm 2 m/S 750 mmHg 58%
    20:00 +17°C° 0 mm 2 m/S 750 mmHg 62%
    21:00 +17°C° 0 mm 2 m/S 750 mmHg 64%
    22:00 +16°C° 0 mm 2 m/S 750 mmHg 66%
    23:00 +15°C° 0 mm 2 m/S 750 mmHg 67%

    23 August, Donnerstag

    Zeit Temperatur Niederschläge Wind Luftdruck Luftfeuchtigkeit
    00:00 +15°C° 0 mm 2 m/S 750 mmHg 69%
    01:00 +15°C° 0 mm 2 m/S 750 mmHg 71%
    02:00 +14°C° 0 mm 2 m/S 750 mmHg 73%
    03:00 +14°C° 0 mm 1 m/S 750 mmHg 75%
    04:00 +13°C° 0 mm 1 m/S 750 mmHg 77%
    05:00 +13°C° 0 mm 1 m/S 750 mmHg 78%
    06:00 +15°C° 0 mm 1 m/S 751 mmHg 72%
    07:00 +18°C° 0 mm 1 m/S 751 mmHg 65%
    08:00 +20°C° 0 mm 1 m/S 751 mmHg 58%
    09:00 +22°C° 0 mm 1 m/S 751 mmHg 52%
    10:00 +23°C° 0 mm 1 m/S 750 mmHg 46%
    11:00 +24°C° 0 mm 1 m/S 750 mmHg 41%
    12:00 +25°C° 0 mm 1 m/S 750 mmHg 39%
    13:00 +25°C° 0 mm 1 m/S 750 mmHg 37%
    14:00 +26°C° 0 mm 1 m/S 749 mmHg 35%
    15:00 +26°C° 0 mm 1 m/S 749 mmHg 37%
    16:00 +26°C° 0 mm 1 m/S 749 mmHg 39%
    17:00 +26°C° 0 mm 1 m/S 749 mmHg 42%
    18:00 +24°C° 0 mm 1 m/S 749 mmHg 45%
    19:00 +22°C° 0 mm 1 m/S 749 mmHg 48%
    20:00 +20°C° 0 mm 1 m/S 749 mmHg 52%
    21:00 +19°C° 0 mm 1 m/S 749 mmHg 53%
    22:00 +19°C° 0 mm 1 m/S 748 mmHg 55%
    23:00 +18°C° 0 mm 1 m/S 748 mmHg 57%
    Mehr zeigen